Date String (YYYY-MM-DD hh:mm:ss) UTC,Instrument flags,Ambient pressure (hPa),Sample flow (lpm),Bypass flow (lpm),Sample temperature (°C),Ambient temperature (°C),ASC tube jacket temperature (°C),LED temperature (°C),Box temperature (°C),Sample RH (%),Span deviation,Mass concentration (μg/m³),Mass concentration (μg/m³),Mass concentration (μg/m³)
DateTimeUTC,F1_M11,P_M11,Q1_M11,Q2_M11,T1_M11,T2_M11,T3_M11,T4_M11,T5_M11,U1_M11,ZSPAN_M11,X0_M11,X2_M11,X1_M11
2022-09-10 23:00:00,,0835.0,5.00,0.00,28.6,27.2,00.0,37.4,30.5,26.2,0000.0,0003.68,0001.91,0001.41
2022-09-10 23:01:00,,0835.0,5.00,0.00,28.6,27.2,00.0,37.4,30.5,25.8,0000.0,0003.70,0001.88,0001.38
2022-09-10 23:02:00,,0835.0,5.01,0.00,28.7,27.2,00.0,37.4,30.5,25.6,0000.0,0003.64,0001.84,0001.37
2022-09-10 23:03:00,,0835.0,4.99,0.00,28.7,27.2,00.0,37.4,30.5,25.6,0000.0,0003.62,0001.82,0001.33
2022-09-10 23:04:00,,0835.0,5.00,0.00,28.7,27.2,00.0,37.4,30.5,25.8,0000.0,0003.72,0001.87,0001.32
2022-09-10 23:05:00,,0834.9,5.00,0.00,28.7,27.2,00.0,37.4,30.5,25.9,0000.0,0003.72,0001.85,0001.30
2022-09-10 23:06:00,,0835.0,5.01,0.00,28.7,27.2,00.0,37.4,30.6,26.0,0000.0,0003.68,0001.83,0001.28
2022-09-10 23:07:00,,0835.0,5.00,0.00,28.7,27.2,00.0,37.4,30.6,25.8,0000.0,0003.05,0001.80,0001.26
2022-09-10 23:08:00,,0835.0,5.00,0.00,28.7,27.3,00.0,37.4,30.6,25.7,0000.0,0002.95,0001.81,0001.25
2022-09-10 23:09:00,,0835.0,5.00,0.00,28.7,27.3,00.0,37.4,30.6,25.7,0000.0,0002.83,0001.76,0001.24
2022-09-10 23:10:00,,0835.0,5.00,0.00,28.7,27.3,00.0,37.4,30.6,25.6,0000.0,0002.71,0001.71,0001.24
2022-09-10 23:11:00,,0835.0,5.00,0.00,28.7,27.3,00.0,37.4,30.6,25.5,0000.0,0002.79,0001.73,0001.23
2022-09-10 23:12:00,,0835.0,5.00,0.00,28.7,27.3,00.0,37.4,30.6,25.7,0000.0,0002.72,0001.71,0001.24
2022-09-10 23:13:00,,0835.0,5.00,0.00,28.7,27.3,00.0,37.4,30.6,25.7,0000.0,0002.80,0001.73,0001.24
2022-09-10 23:14:00,,0835.0,4.98,0.00,28.7,27.3,00.0,37.4,30.6,25.7,0000.0,0002.71,0001.70,0001.24
2022-09-10 23:15:00,,0835.0,5.00,0.00,28.7,27.3,00.0,37.4,30.6,25.8,0000.0,0002.66,0001.65,0001.23
2022-09-10 23:16:00,,0835.0,5.00,0.00,28.7,27.3,00.0,37.4,30.6,26.0,0000.0,0002.66,0001.64,0001.23
2022-09-10 23:17:00,,0835.0,5.01,0.00,28.7,27.3,00.0,37.4,30.6,26.3,0000.0,0002.69,0001.67,0001.25
2022-09-10 23:18:00,,0835.0,5.00,0.00,28.7,27.3,00.0,37.4,30.6,26.6,0000.0,0002.81,0001.77,0001.35
2022-09-10 23:19:00,,0835.1,5.00,0.00,28.7,27.3,00.0,37.5,30.6,27.6,0000.0,0003.01,0001.94,0001.51
2022-09-10 23:20:00,,0835.0,5.00,0.00,28.7,27.3,00.0,37.5,30.6,27.3,0000.0,0003.26,0002.11,0001.67
2022-09-10 23:21:00,,0835.1,5.00,0.00,28.8,27.3,00.0,37.5,30.6,27.0,0000.0,0003.43,0002.27,0001.83
2022-09-10 23:22:00,,0835.0,5.00,0.00,28.8,27.3,00.0,37.5,30.6,27.0,0000.0,0003.51,0002.40,0002.00
2022-09-10 23:23:00,,0835.0,5.00,0.00,28.8,27.3,00.0,37.5,30.6,27.0,0000.0,0003.58,0002.55,0002.17
2022-09-10 23:24:00,,0835.0,5.00,0.00,28.8,27.3,00.0,37.5,30.6,27.1,0000.0,0003.61,0002.68,0002.31
2022-09-10 23:25:00,,0835.1,5.00,0.00,28.7,27.2,00.0,37.5,30.6,27.0,0000.0,0003.76,0002.83,0002.46
2022-09-10 23:26:00,,0835.0,5.00,0.00,28.7,27.2,00.0,37.5,30.6,27.1,0000.0,0003.89,0002.99,0002.63
2022-09-10 23:27:00,,0835.1,5.00,0.00,28.7,27.2,00.0,37.5,30.6,27.0,0000.0,0004.02,0003.14,0002.80
2022-09-10 23:28:00,,0835.1,4.99,0.00,28.7,27.1,00.0,37.5,30.5,27.0,0000.0,0004.15,0003.22,0002.95
2022-09-10 23:29:00,,0835.0,4.99,0.00,28.7,27.1,00.0,37.4,30.5,27.0,0000.0,0004.19,0003.26,0003.04
2022-09-10 23:30:00,,0835.1,5.00,0.00,28.7,27.1,00.0,37.4,30.5,27.0,0000.0,0004.18,0003.27,0003.06
2022-09-10 23:31:00,,0835.0,5.00,0.00,28.7,27.2,00.0,37.4,30.5,26.9,0000.0,0004.07,0003.25,0003.05
2022-09-10 23:32:00,,0835.0,5.00,0.00,28.7,27.1,00.0,37.4,30.5,27.0,0000.0,0004.02,0003.24,0003.06
2022-09-10 23:33:00,,0835.1,5.00,0.00,28.7,27.1,00.0,37.4,30.5,27.0,0000.0,0004.01,0003.25,0003.06
2022-09-10 23:34:00,,0835.1,5.00,0.00,28.7,27.1,00.0,37.4,30.5,27.0,0000.0,0004.00,0003.24,0003.06
2022-09-10 23:35:00,,0835.1,5.00,0.00,28.7,27.1,00.0,37.4,30.5,26.9,0000.0,0003.96,0003.23,0003.05
2022-09-10 23:36:00,,0835.1,5.00,0.00,28.7,27.0,00.0,37.4,30.5,27.0,0000.0,0004.07,0003.24,0003.04
2022-09-10 23:37:00,,0835.0,5.00,0.00,28.7,27.1,00.0,37.4,30.5,27.2,0000.0,0004.05,0003.23,0003.03
2022-09-10 23:38:00,,0835.0,5.00,0.00,28.7,27.1,00.0,37.4,30.5,27.3,0000.0,0004.04,0003.23,0003.02
2022-09-10 23:39:00,,0835.1,5.00,0.00,28.7,27.1,00.0,37.4,30.5,27.2,0000.0,0004.09,0003.24,0003.00
2022-09-10 23:40:00,,0835.1,5.00,0.00,28.7,27.1,00.0,37.4,30.5,27.2,0000.0,0004.21,0003.26,0002.99
2022-09-10 23:41:00,,0835.1,5.00,0.00,28.6,27.1,00.0,37.4,30.5,27.2,0000.0,0004.13,0003.24,0002.97
2022-09-10 23:42:00,,0835.0,5.01,0.00,28.6,27.1,00.0,37.4,30.5,27.2,0000.0,0004.17,0003.24,0002.97
2022-09-10 23:43:00,,0835.1,5.00,0.00,28.6,27.1,00.0,37.4,30.5,27.2,0000.0,0004.24,0003.25,0002.96
2022-09-10 23:44:00,,0835.0,4.99,0.00,28.6,27.0,00.0,37.4,30.4,27.3,0000.0,0004.23,0003.25,0002.97
2022-09-10 23:45:00,,0835.1,5.00,0.00,28.6,27.0,00.0,37.4,30.5,27.3,0000.0,0004.24,0003.26,0002.99
2022-09-10 23:46:00,,0835.1,5.00,0.00,28.6,27.1,00.0,37.4,30.5,27.4,0000.0,0004.26,0003.27,0003.01
2022-09-10 23:47:00,,0835.1,5.01,0.00,28.6,27.0,00.0,37.4,30.5,27.5,0000.0,0004.43,0003.28,0003.06
2022-09-10 23:48:00,,0835.1,5.01,0.00,28.6,27.0,00.0,37.4,30.5,27.5,0000.0,0004.55,0003.30,0003.10
2022-09-10 23:49:00,,0835.1,4.99,0.00,28.6,27.1,00.0,37.4,30.5,27.4,0000.0,0004.60,0003.33,0003.14
2022-09-10 23:50:00,,0835.1,5.00,0.00,28.6,27.1,00.0,37.4,30.5,27.5,0000.0,0004.64,0003.35,0003.17
2022-09-10 23:51:00,,0835.1,5.01,0.00,28.6,27.1,00.0,37.4,30.5,27.6,0000.0,0004.61,0003.38,0003.20
2022-09-10 23:52:00,,0835.0,5.00,0.00,28.6,27.1,00.0,37.4,30.4,28.3,0000.0,0004.74,0003.42,0003.23
2022-09-10 23:53:00,,0835.1,5.00,0.00,28.6,27.0,00.0,37.4,30.4,28.0,0000.0,0004.85,0003.48,0003.28
2022-09-10 23:54:00,,0835.1,5.00,0.00,28.6,27.0,00.0,37.3,30.4,27.7,0000.0,0004.89,0003.52,0003.32
2022-09-10 23:55:00,,0835.1,4.99,0.00,28.6,26.9,00.0,37.3,30.4,27.8,0000.0,0004.93,0003.55,0003.36
2022-09-10 23:56:00,,0835.0,5.00,0.00,28.6,26.9,00.0,37.3,30.4,27.7,0000.0,0004.99,0003.58,0003.39
2022-09-10 23:57:00,,0835.1,4.99,0.00,28.6,26.9,00.0,37.3,30.4,27.6,0000.0,0005.20,0003.63,0003.39
2022-09-10 23:58:00,,0835.0,5.00,0.00,28.5,26.8,00.0,37.3,30.3,27.5,0000.0,0004.98,0003.62,0003.37
2022-09-10 23:59:00,,0835.0,5.00,0.00,28.5,26.8,00.0,37.3,30.3,27.5,0000.0,0004.79,0003.59,0003.34
